Location: Arbon
(43.0005°N, 0.7472°E)
Time: 18:44:59
(UTC+00:00)

ARIANE 5 R/B - Pass Details

Date: 07 August 2020
Orbit: 749 x 795 km, 98.6° (Epoch: 23 September)

Event Time Altitude Azimuth Distance (km) Brightness Sun altitude
Rises 03:47:19 0° 4° (N) 3,295 6.4 -11.5°
Reaches altitude 10° 03:49:52 10° 354° (N) 2,366 5.4 -11.1°
Maximum altitude 03:54:22 30° 294° (WNW) 1,383 3.6 -10.5°
Enters shadow 03:58:20 13° 238° (WSW) 2,178 4.2 -9.9°
